[[{"header":{"parameterUnit":"m.s-1","parameterCategory":1,"la1":30.2991,"la2":30.254,"lo1":-89.0895,"lo2":-89.0444,"dy":0.0017,"dx":0.0017,"nx":28,"ny":28,"refTime":"2024-03-18T09:00:00:Z","depth":0,"parameterNumber":2,"parameterNumberName":"U-component_of_WINDS"},"data":[0,0,0,0,0,0,0,0,0,0,0,0,0,0,0,0,0,0,0,0,0,0,0,0,0,0,0,0,0,0,0,0,0,0,0,0,0,0,0,0,0,0,0,0,0,0,0,0,0,0,0,0,0,0,0,0,0,0,1.3281,1.3282,0,1.3359,1.336,1.3361,1.3388,1.3388,1.3387,1.3387,1.3469,1.3471,1.3474,0,0,0,0,0,0,0,0,0,0,0,0,0,1.3155,1.3157,1.3281,1.3282,1.3283,1.3359,1.336,1.3361,1.3388,1.3388,1.3387,1.3387,1.3468,1.3471,1.3474,0,0,0,0,0,0,0,0,0,0,0,0,0,1.3219,1.3158,1.3281,1.3305,1.3308,1.3359,1.336,1.3362,1.3388,1.3388,1.3387,1.3387,1.3467,1.3471,1.3475,1.3507,0,0,1.3486,1.3487,0,0,0,0,0,0,0,0,1.3215,1.3224,1.3301,1.3304,1.3307,1.3363,1.3346,1.341,1.3388,1.3358,1.3387,1.3387,1.3434,1.3441,1.3457,1.3511,1.3514,1.3486,1.3488,1.349,1.3491,0,0,0,0,0,0,0,1.3211,1.322,1.3312,1.3302,1.3306,1.3313,1.3321,1.3358,1.3398,1.336,1.3363,1.3371,1.3436,1.3453,1.3459,1.3515,1.3486,1.3489,1.3492,1.3493,1.3598,1.3599,0,0,0,0,0,0,1.3202,1.3216,1.3309,1.3314,1.3259,1.3315,1.3325,1.3346,1.3397,1.3405,1.3372,1.3372,1.3447,1.3454,1.3462,1.3502,1.349,1.3493,1.3496,1.3598,1.3598,1.3599,0,0,0,0,0,0,1.3199,1.321,1.3306,1.3266,1.3279,1.3318,1.3341,1.3348,1.3364,1.3406,1.3413,1.3382,1.3447,1.3456,1.3495,1.3505,1.3495,1.3499,1.3597,1.3598,1.3599,1.3583,0,0,0,0,0,0,1.3196,1.3209,1.3222,1.3266,1.3281,1.3338,1.3342,1.3349,1.3371,1.3372,1.3417,1.3424,1.3447,1.3489,1.3499,1.351,1.3501,1.3596,1.3598,1.3599,1.3583,1.3583,1.3583,0,0,0,0,0,1.3191,1.3215,1.3222,1.3233,1.3297,1.3338,1.3347,1.3372,1.3371,1.3384,1.3411,1.3423,1.3502,1.3493,1.3504,1.3516,1.3596,1.3597,1.3598,1.3582,1.3583,1.3583,0,0,0,0,0,0,1.3171,1.3221,1.323,1.3269,1.3299,1.3343,1.336,1.3372,1.3404,1.3404,1.3435,1.3445,1.3481,1.3503,1.3491,1.355,1.355,1.3553,1.3534,1.3535,1.3535,1.3529,1.3505,0,0,0,0,0,1.3171,1.32,1.3242,1.3272,1.3287,1.3321,1.334,1.3356,1.339,1.3403,1.3432,1.3464,1.3496,1.3517,1.3549,1.3586,1.3596,1.36,1.36,1.36,1.3603,1.3623,1.3625,1.3603,1.3603,1.3603,0,0,1.3172,1.3203,1.3219,1.3269,1.3295,1.3324,1.3332,1.3363,1.3385,1.3408,1.3445,1.3468,1.3505,1.3543,1.3561,1.3562,1.3611,1.3602,1.3602,1.3604,1.3624,1.3626,1.3628,1.3604,1.3604,1.3604,0,0,1.3188,1.3214,1.3242,1.3267,1.3305,1.3327,1.3333,1.3375,1.3391,1.3429,1.3446,1.3473,1.3528,1.3554,1.3574,1.3598,1.361,1.3607,1.3609,1.3629,1.363,1.3632,1.364,1.3642,1.361,1.361,1.361,0,1.3184,1.3228,1.3254,1.3284,1.3305,1.3326,1.3354,1.3377,1.3424,1.3438,1.3439,1.3507,1.3534,1.3577,1.3582,1.3599,1.3607,1.3602,1.3628,1.363,1.3632,1.3639,1.3642,1.3609,1.3609,1.3609,1.3609,0,1.3221,1.3252,1.3269,1.3313,1.3336,1.3364,1.3394,1.3415,1.3429,1.3451,1.3489,1.3522,1.356,1.3571,1.3586,1.3617,1.3616,1.3622,1.3623,1.3633,1.364,1.3644,1.3608,1.3609,1.3609,1.3609,0,0,1.3227,1.3284,1.329,1.3309,1.3352,1.3376,1.3406,1.3442,1.3459,1.349,1.3515,1.356,1.3565,1.3588,1.3606,1.3623,1.3638,1.3627,1.3628,1.3627,1.3673,1.3667,1.367,1.3647,1.3647,1.3648,1.3669,0,1.3248,1.3301,1.3324,1.3366,1.3394,1.3414,1.3439,1.3468,1.3489,1.3516,1.354,1.3571,1.3576,1.3589,1.3607,1.3633,1.3648,1.3632,1.367,1.3671,1.3659,1.3675,1.367,1.3688,1.3672,1.3673,1.3673,0,1.328,1.331,1.3354,1.3393,1.3405,1.3428,1.3462,1.3488,1.3521,1.3535,1.356,1.3576,1.3608,1.3606,1.3649,1.3637,1.3654,1.3669,1.3671,1.3675,1.3673,1.3679,1.3695,1.3698,1.3679,1.3678,1.3678,0,1.3278,1.333,1.3363,1.3379,1.3425,1.344,1.346,1.3493,1.3513,1.3544,1.3557,1.3591,1.3609,1.3635,1.3661,1.3657,1.3701,1.3702,1.3713,1.3713,1.3722,1.3721,1.374,1.3733,1.3733,1.3733,1.3733,0,1.3299,1.3325,1.3363,1.3383,1.3413,1.344,1.3468,1.349,1.3518,1.3543,1.3563,1.3585,1.3618,1.3644,1.3665,1.3697,1.3705,1.3717,1.3722,1.3715,1.3713,1.3727,1.3726,1.3734,1.3734,1.3733,1.3733,0,1.3302,1.3329,1.3366,1.3406,1.3417,1.3437,1.3471,1.3491,1.3513,1.3544,1.3553,1.3586,1.3619,1.3647,1.369,1.3703,1.3736,1.3742,1.3724,1.3727,1.3737,1.3735,1.3765,1.377,1.376,1.376,1.376,0,1.3313,1.3334,1.3376,1.3393,1.3412,1.3441,1.3461,1.3488,1.3508,1.3547,1.3562,1.3596,1.3624,1.3675,1.3703,1.3736,1.3743,1.3751,1.3748,1.374,1.3743,1.3741,1.3743,1.3751,1.3751,1.3751,1.3751,0,1.333,1.3342,1.337,1.3402,1.3426,1.3453,1.348,1.3494,1.3526,1.3547,1.358,1.3602,1.3645,1.3678,1.3714,1.3735,1.3748,1.3752,1.3756,1.3749,1.3738,1.3743,1.3724,1.3751,1.3751,1.3751,1.3751,1.3751,1.3337,1.3355,1.3387,1.3418,1.3441,1.3466,1.3487,1.3511,1.3538,1.3575,1.3589,1.3623,1.3655,1.3704,1.3724,1.3751,1.3753,1.3759,1.3761,1.3762,1.376,1.3733,1.3758,1.3758,1.3758,1.3758,1.3758,0,1.3353,1.3375,1.3402,1.344,1.3464,1.3474,1.3505,1.3524,1.3553,1.3581,1.3608,1.3645,1.3677,1.3708,1.3741,1.3756,1.3763,1.3764,1.3763,1.3768,1.3757,1.375,1.3758,1.3758,1.3758,1.3758,1.3758,1.3758,1.3365,1.3396,1.3412,1.3455,1.3476,1.3509,1.3525,1.3548,1.3571,1.3612,1.3638,1.3657,1.3687,1.3722,1.3751,1.376,1.3771,1.377,1.378,1.3769,1.3769,1.3768,1.3761,1.3772,1.3772,1.3788,1.3788,1.3788]},{"header":{"parameterUnit":"m.s-1","parameterCategory":1,"la1":30.2991,"la2":30.254,"lo1":-89.0895,"lo2":-89.0444,"dy":0.0017,"dx":0.0017,"nx":28,"ny":28,"refTime":"2024-03-18T09:00:00:Z","depth":0,"parameterNumber":3,"parameterNumberName":"V-component_of_WINDS"},"data":[0,0,0,0,0,0,0,0,0,0,0,0,0,0,0,0,0,0,0,0,0,0,0,0,0,0,0,0,0,0,0,0,0,0,0,0,0,0,0,0,0,0,0,0,0,0,0,0,0,0,0,0,0,0,0,0,0,0,1.4904,1.4904,0,1.4872,1.4872,1.4872,1.4869,1.4869,1.487,1.487,1.4834,1.4833,1.4831,0,0,0,0,0,0,0,0,0,0,0,0,0,1.4959,1.4958,1.4904,1.4904,1.4904,1.4872,1.4872,1.4872,1.4869,1.4869,1.487,1.487,1.4834,1.4833,1.4831,0,0,0,0,0,0,0,0,0,0,0,0,0,1.4932,1.4957,1.4904,1.4899,1.4898,1.4873,1.4872,1.4871,1.4869,1.4869,1.487,1.4871,1.4835,1.4833,1.4831,1.4808,0,0,1.4825,1.4824,0,0,0,0,0,0,0,0,1.4933,1.493,1.49,1.4899,1.4898,1.4875,1.4878,1.485,1.4869,1.488,1.487,1.4871,1.4847,1.4844,1.4837,1.4807,1.4805,1.4825,1.4824,1.4823,1.4822,0,0,0,0,0,0,0,1.4935,1.4931,1.4892,1.4899,1.4898,1.4896,1.4893,1.4873,1.4861,1.4879,1.4879,1.4875,1.4847,1.4839,1.4836,1.4805,1.4825,1.4823,1.4822,1.4821,1.4751,1.475,0,0,0,0,0,0,1.4939,1.4933,1.4893,1.4891,1.4917,1.4895,1.4891,1.4882,1.4861,1.4858,1.4875,1.4875,1.4842,1.4838,1.4835,1.4805,1.4823,1.4821,1.482,1.4751,1.4751,1.475,0,0,0,0,0,0,1.494,1.4935,1.4894,1.4912,1.4906,1.4893,1.4883,1.4881,1.4873,1.4858,1.4855,1.4869,1.4842,1.4837,1.4814,1.4803,1.482,1.4819,1.4752,1.4751,1.475,1.4746,0,0,0,0,0,0,1.4941,1.4936,1.4928,1.4911,1.4905,1.4876,1.4882,1.488,1.487,1.4871,1.4852,1.4849,1.4842,1.4817,1.4813,1.4801,1.4817,1.4753,1.4752,1.4751,1.4747,1.4745,1.4743,0,0,0,0,0,1.4943,1.4928,1.4928,1.4923,1.4896,1.4875,1.4871,1.4865,1.487,1.4861,1.485,1.485,1.4806,1.4815,1.481,1.4797,1.4754,1.4752,1.4751,1.4748,1.4745,1.4743,0,0,0,0,0,0,1.4943,1.4926,1.4925,1.4904,1.4891,1.4875,1.4864,1.4862,1.4847,1.4848,1.4839,1.4834,1.4811,1.4802,1.4813,1.4773,1.478,1.4777,1.478,1.4777,1.4775,1.4777,1.4815,0,0,0,0,0,1.4941,1.4927,1.4912,1.4894,1.4888,1.4877,1.4868,1.4864,1.4849,1.4843,1.4832,1.4816,1.4799,1.4788,1.4771,1.4746,1.474,1.4734,1.4732,1.4731,1.4728,1.4711,1.4708,1.4745,1.4745,1.4745,0,0,1.4935,1.4924,1.4916,1.4894,1.4884,1.4867,1.4872,1.4856,1.4843,1.4841,1.4818,1.4808,1.4791,1.4766,1.4754,1.4758,1.4716,1.4729,1.4727,1.4726,1.4709,1.4706,1.4702,1.4744,1.4744,1.4744,0,0,1.4917,1.4908,1.4892,1.4881,1.4865,1.4857,1.4853,1.4836,1.483,1.4808,1.4805,1.4789,1.4759,1.4746,1.4736,1.471,1.4708,1.4705,1.4694,1.4678,1.4675,1.4672,1.4661,1.4657,1.4702,1.4702,1.4702,0,1.4912,1.4889,1.4883,1.4866,1.4856,1.4853,1.4835,1.4824,1.4803,1.4795,1.4799,1.4761,1.4749,1.472,1.4714,1.4706,1.4699,1.4707,1.4676,1.4673,1.4671,1.466,1.4656,1.4702,1.4702,1.4702,1.4702,0,1.4882,1.4866,1.4855,1.4835,1.4823,1.4806,1.4795,1.4784,1.478,1.4772,1.4747,1.4732,1.4711,1.4704,1.4701,1.4674,1.4676,1.4678,1.4685,1.4667,1.4656,1.4652,1.4701,1.4702,1.4702,1.4702,0,0,1.4864,1.484,1.4835,1.4825,1.4807,1.4793,1.4774,1.4755,1.4744,1.4729,1.4711,1.4686,1.4687,1.4675,1.467,1.4656,1.4633,1.4659,1.4658,1.4653,1.46,1.4597,1.4592,1.4632,1.4631,1.4631,1.46,0,1.4842,1.481,1.4803,1.4775,1.4759,1.4755,1.4738,1.4724,1.4715,1.4698,1.4687,1.4669,1.4673,1.4665,1.4651,1.4639,1.4622,1.4641,1.4613,1.4612,1.4617,1.4587,1.4585,1.4557,1.4596,1.4596,1.4595,0,1.4813,1.4797,1.4767,1.4749,1.4742,1.4727,1.4707,1.4692,1.4674,1.4668,1.4654,1.465,1.4628,1.4636,1.4604,1.4617,1.4605,1.4597,1.4596,1.4592,1.4602,1.4581,1.4548,1.4543,1.4589,1.459,1.459,0,1.48,1.4771,1.4749,1.4741,1.4719,1.4708,1.4699,1.4682,1.467,1.4652,1.4643,1.4622,1.4611,1.4594,1.4583,1.4591,1.4551,1.4559,1.4543,1.4543,1.4534,1.4535,1.4498,1.4529,1.4529,1.4529,1.4529,0,1.4775,1.4757,1.4743,1.4729,1.4707,1.4698,1.4676,1.4666,1.4651,1.4633,1.4629,1.4612,1.4599,1.458,1.4571,1.4545,1.454,1.4533,1.453,1.4532,1.4533,1.4523,1.4524,1.4528,1.4528,1.4529,1.4529,0,1.4757,1.4747,1.4722,1.4704,1.4698,1.4683,1.4666,1.4651,1.4641,1.4619,1.4613,1.4597,1.4574,1.4562,1.4533,1.4527,1.4496,1.4496,1.4502,1.4501,1.4485,1.4486,1.4439,1.4432,1.447,1.447,1.4469,0,1.4742,1.4727,1.4707,1.4695,1.4685,1.4667,1.4654,1.4644,1.4631,1.4608,1.4596,1.4572,1.4553,1.4516,1.4501,1.4478,1.4476,1.4461,1.4472,1.4474,1.4473,1.4473,1.447,1.4459,1.4458,1.4458,1.4458,0,1.4715,1.471,1.4693,1.4673,1.4658,1.4642,1.4626,1.4616,1.4603,1.4588,1.4564,1.455,1.452,1.4495,1.4471,1.4459,1.4455,1.4454,1.4449,1.445,1.4454,1.4449,1.4495,1.4455,1.4455,1.4456,1.4456,1.4456,1.4696,1.4682,1.4665,1.4645,1.4632,1.4616,1.4601,1.4589,1.457,1.4545,1.454,1.4515,1.4495,1.4461,1.4448,1.4426,1.4429,1.4422,1.442,1.4418,1.4416,1.4458,1.4422,1.4422,1.4422,1.4422,1.4422,0,1.4668,1.4656,1.4638,1.4615,1.4599,1.4598,1.4579,1.4565,1.4543,1.4525,1.4506,1.4478,1.4454,1.4436,1.4411,1.4397,1.4394,1.4391,1.4391,1.4387,1.4416,1.4422,1.4393,1.4393,1.4393,1.4393,1.4393,1.4393,1.4651,1.4626,1.4619,1.4587,1.4575,1.4551,1.454,1.4524,1.451,1.4479,1.4459,1.4448,1.4429,1.4403,1.438,1.4375,1.4365,1.4361,1.4355,1.4383,1.4386,1.4389,1.4394,1.4359,1.4359,1.4328,1.4328,1.4327]}]]